Погода в Нишапуре

Иран     36°13′29″N   58°46′56″E
темп.,
°C
ветер,
м/с
пор.,
м/с
влажн.,
%
обл.,
%
осадки,
мм/ч
давл.,
гПа
погр.,
м
12 апреля, пн
пн1201:30+18ссв2227100 0.0 101461
04:30+17зюз1128100 0.0 101560
07:30+18юв4625100 0.0 1015240
10:30+21ю2327100 0.0 10151086
13:30+23ююв242788 0.1 10131541
16:30+25зсз581868 0.7 10112793
19:30+21с58306 0.0 1013469
22:30+18вюв12396 0.1 1016160
13 апреля, вт
вт1301:30+16сз1243100 0.0 1017193
04:30+14зсз114521 0.0 101798
07:30+16ююз114023 0.0 1017101
10:30+19з113314 0.0 1017443
13:30+24юз3321100 0.0 10142052
16:30+22з222390 0.3 1013754
19:30+20всв343116 0.2 1014493
22:30+18юв3436100 0.2 1016213
14 апреля, ср
ср1401:30+17в784196 0.3 1014463
04:30+15ююз11410 0.4 101488
07:30+17зюз003568 0.0 1014106
10:30+20ю222979 0.0 1013531
13:30+24зюз12203 0.0 10101816
16:30+25ссз1415100 0.0 10072787
19:30+21юв973098 0.2 1009644
22:30+17ююв11124748 0.9 1012778
15 апреля, чт
чт1501:30+13ссз2276100 7.0 1014276
04:30+13всв2261100 14.4 1014327
07:30+14з1156100 0.1 1014293
10:30+17юз214981 0.1 1014876
13:30+20ююз22370 0.2 10121570
16:30+22ю33281 0.3 10101698
19:30+19сз563630 0.0 1011708
22:30+18ююв34422 0.1 1012265
16 апреля, пт
пт1601:30+16ссз12460 0.0 1012179
04:30+15зсз11483 0.0 1012132
07:30+16ю11450 0.0 1013202
10:30+20ююв22335 0.0 1012828
13:30+23ююз2419100 0.0 10102352
16:30+23вюв6423100 0.1 10081012
19:30+18ююв6740100 1.9 1011791
22:30+16ссз4456100 2.3 1012422